[[{"header":{"parameterUnit":"m.s-1","parameterCategory":1,"la1":30.2992,"la2":30.254,"lo1":-89.0895,"lo2":-89.0443,"dy":0.0025,"dx":0.0025,"nx":19,"ny":19,"refTime":"2026-05-05T09:00:00:Z","depth":0,"parameterNumber":2,"parameterNumberName":"U-component_of_WINDS"},"data":[0,0,0,0.9386,0.9386,0.9382,0.9382,0.9383,0.9383,0,0,0,0,0,0,0,0,0,0,0,0.9393,0.9394,0.9386,0.9386,0.9382,0.9382,0.9383,0.9383,0,0,0,0,0,0,0,0,0,0,0,0.9393,0.9393,0.9394,0.9386,0.9382,0.9382,0.9383,0.9383,0,0,0,0,0,0,0,0,0,0,0.9386,0.9399,0.9393,0.9394,0.9386,0.9382,0.9382,0.9383,0.9383,0.9388,0,0.9396,0,0.9389,0.9383,0.9384,0,0,0,0.9381,0.9399,0.9393,0.9394,0.9386,0.9382,0.9382,0.9383,0.9383,0.9388,0.9396,0.9395,0.9389,0.9384,0.9384,0.9429,0.943,0,0,0.9382,0.9395,0.9393,0.9393,0.9396,0.9383,0.9382,0.9383,0.9391,0.9396,0.9395,0.9389,0.9384,0.9384,0.9429,0.943,0,0,0,0.9386,0.9396,0.9389,0.9393,0.9392,0.9383,0.9382,0.9391,0.9388,0.9395,0.9389,0.9384,0.9384,0.9429,0.9429,0.9463,0,0,0,0.9385,0.9398,0.9389,0.9398,0.9392,0.9392,0.9391,0.9388,0.9388,0.9389,0.9384,0.9384,0.9428,0.9429,0.9461,0.9476,0,0,0,0.9391,0.9399,0.94,0.9399,0.9397,0.9392,0.9388,0.9388,0.9384,0.9384,0.9384,0.9428,0.9429,0.9459,0.9473,0.949,0,0,0,0.9402,0.9432,0.9401,0.9432,0.9398,0.9414,0.9388,0.9399,0.9403,0.9384,0.9428,0.9429,0.9459,0.9471,0.9488,0.9505,0.9515,0,0,0.9447,0.9438,0.9454,0.9427,0.9452,0.9413,0.9442,0.9432,0.9419,0.9426,0.9427,0.9462,0.9473,0.949,0.9564,0.9572,0,0,0,0.9473,0.9485,0.9489,0.9493,0.9486,0.948,0.9465,0.946,0.9465,0.9426,0.9473,0.9479,0.9488,0.9496,0.9502,0.9508,0.9434,0.9434,0.9434,0.9556,0.9538,0.9563,0.9544,0.9548,0.953,0.9531,0.9521,0.9503,0.9514,0.9515,0.9563,0.9572,0.9577,0.9583,0.9525,0.9525,0.9525,0.9525,0.9618,0.9631,0.9604,0.9619,0.9598,0.961,0.9593,0.9579,0.9585,0.9561,0.9568,0.9542,0.9585,0.9589,0.9527,0.9527,0.9527,0.9526,0.9526,0.9669,0.9671,0.9666,0.9668,0.9671,0.965,0.9656,0.9638,0.9621,0.9628,0.9625,0.9625,0.962,0.9629,0.9629,0.9629,0.9629,0.9629,0.9629,0.9722,0.9715,0.9723,0.9717,0.9716,0.9711,0.9693,0.969,0.9682,0.9668,0.9668,0.9646,0.9594,0.958,0.9632,0.9631,0.9631,0.9631,0.9631,0.9788,0.977,0.9783,0.9782,0.9771,0.9773,0.975,0.9746,0.9741,0.9744,0.9721,0.9686,0.9675,0.967,0.9658,0.9726,0.9726,0.9726,0.9726,0.9829,0.9822,0.9829,0.9827,0.9824,0.9803,0.9815,0.98,0.9781,0.9776,0.9764,0.9747,0.9743,0.9734,0.9727,0.9715,0.9797,0.9797,0.9797,0.9867,0.9858,0.9873,0.9855,0.9845,0.9835,0.9845,0.9842,0.9817,0.98,0.9771,0.9768,0.9741,0.9734,0.9714,0.9705,0.9683,0,0]},{"header":{"parameterUnit":"m.s-1","parameterCategory":1,"la1":30.2992,"la2":30.254,"lo1":-89.0895,"lo2":-89.0443,"dy":0.0025,"dx":0.0025,"nx":19,"ny":19,"refTime":"2026-05-05T09:00:00:Z","depth":0,"parameterNumber":3,"parameterNumberName":"V-component_of_WINDS"},"data":[0,0,0,5.3898,5.3901,5.4044,5.4045,5.424,5.4242,0,0,0,0,0,0,0,0,0,0,0,5.3866,5.3868,5.3897,5.3901,5.4044,5.4045,5.4239,5.4242,0,0,0,0,0,0,0,0,0,0,0,5.3865,5.3867,5.387,5.3902,5.4044,5.4045,5.4239,5.4126,0,0,0,0,0,0,0,0,0,0,5.3984,5.3967,5.3867,5.387,5.3903,5.4044,5.4045,5.412,5.4133,5.4181,0,5.423,0,5.4239,5.4256,5.4256,0,0,0,5.3893,5.3957,5.3985,5.387,5.3904,5.4044,5.3977,5.4127,5.4142,5.4198,5.4232,5.4239,5.4242,5.4257,5.4258,5.4566,5.4568,0,0,5.3885,5.3897,5.3976,5.3995,5.3978,5.3973,5.3982,5.4136,5.4173,5.4233,5.4243,5.4245,5.4258,5.426,5.4565,5.4567,0,0,0,5.3868,5.3892,5.3917,5.3988,5.4013,5.3977,5.3988,5.4166,5.4173,5.4245,5.4248,5.426,5.4262,5.4563,5.4566,5.4667,0,0,0,5.3863,5.3882,5.3914,5.3923,5.401,5.4092,5.4015,5.4162,5.4179,5.4247,5.426,5.4264,5.4561,5.4564,5.4659,5.4712,0,0,0,5.3853,5.3881,5.3906,5.3924,5.3986,5.4089,5.4105,5.4166,5.4181,5.4257,5.4265,5.4559,5.4564,5.4653,5.4701,5.4793,0,0,0,5.3846,5.3997,5.3908,5.4076,5.3985,5.4153,5.4104,5.4228,5.4305,5.4261,5.4561,5.4565,5.4651,5.4695,5.4786,5.487,5.4907,0,0,5.4043,5.4021,5.4118,5.4043,5.4229,5.413,5.4329,5.4388,5.4384,5.4505,5.4512,5.4662,5.4701,5.4791,5.5117,5.5146,0,0,0,5.4184,5.4254,5.4301,5.4375,5.4423,5.4466,5.4493,5.4513,5.4615,5.445,5.4721,5.4744,5.4796,5.4835,5.4861,5.4902,5.4585,5.4585,5.4584,5.4481,5.4465,5.4623,5.4624,5.4696,5.4719,5.4773,5.4804,5.4771,5.4834,5.4869,5.5069,5.5116,5.5134,5.5178,5.4915,5.4916,5.4916,5.4916,5.4763,5.4857,5.4804,5.4939,5.492,5.5031,5.5057,5.5028,5.5126,5.5043,5.5088,5.4995,5.5167,5.5204,5.4924,5.4923,5.4922,5.4921,5.492,5.4952,5.4994,5.5016,5.5117,5.5195,5.519,5.5285,5.5266,5.5248,5.5293,5.5324,5.5322,5.5314,5.531,5.5311,5.5311,5.5312,5.5312,5.5313,5.5138,5.516,5.5244,5.5303,5.5344,5.5396,5.5417,5.5456,5.5494,5.5471,5.5472,5.5427,5.5189,5.5127,5.5323,5.5321,5.532,5.5319,5.5318,5.5425,5.5356,5.5485,5.5526,5.5591,5.5666,5.5639,5.5719,5.5749,5.5795,5.574,5.5569,5.5544,5.5524,5.5472,5.5747,5.5747,5.5747,5.5747,5.5582,5.5567,5.5691,5.5757,5.5819,5.5806,5.5946,5.5962,5.5967,5.5983,5.5941,5.5872,5.5852,5.5839,5.5812,5.5763,5.6105,5.6106,5.6106,5.5754,5.5744,5.5869,5.5873,5.5921,5.5961,5.609,5.6164,5.6156,5.612,5.5993,5.5978,5.5866,5.5832,5.5791,5.575,5.566,0,0]}]]